Weather Service Report


714 
ASUS44 KLZK 261005
RWRLZK

WEATHER ROUNDUP FOR ARKANSAS
NATIONAL WEATHER SERVICE LITTLE ROCK AR
500 AM CDT MON SEP 26 2016

NOTE: "FAIR" INDICATES FEW OR NO CLOUDS BELOW 12,000 FEET WITH NO
SIGNIFICANT WEATHER AND/OR OBSTRUCTIONS TO VISIBILITY.

ARZ001-003-010-029-261100-
NORTHWEST ARKANSAS
  
CITY           SKY/WX    TMP DP  RH WIND       PRES   REMARKS
FAYETTEVILLE   LGT RAIN  58  58 100 NE6       30.20S                  
FORT SMITH     LGT RAIN  66  57  72 N8        30.15R                  
HARRISON       LGT RAIN  58  57  97 N3        30.19F                  
BENTONVILLE    CLOUDY    59  54  82 CALM      30.21R                  
ROGERS         CLOUDY    59  57  93 CALM      30.22R                  
SILOAM SPGS    CLOUDY   N/A N/A N/A N5          N/A                   
HIGHFILL       CLOUDY    60  58  92 N6        30.21R                  
$$

ARZ004-005-016-261100-
NORTH CENTRAL ARKANSAS
  
CITY           SKY/WX    TMP DP  RH WIND       PRES   REMARKS
BATESVILLE     PTCLDY    64  55  72 NW6       30.12R                  
FLIPPIN        CLOUDY    61  54  77 N6        30.15S                  
MTN HOME       CLOUDY    59  57  93 VRB3      30.16S                  
$$

ARZ040-041-261100-
WEST CENTRAL ARKANSAS
  
CITY           SKY/WX    TMP DP  RH WIND       PRES   REMARKS
MENA           CLOUDY    72  66  83 CALM      30.13R                  
MOUNT IDA      CLOUDY    72  68  87 NW3       30.08R                  
$$

ARZ009-017-025-026-028-261100-
NORTHEAST ARKANSAS
  
CITY           SKY/WX    TMP DP  RH WIND       PRES   REMARKS
CORNING          N/A     66  59  77 N9        30.11R                  
JONESBORO      CLOUDY    69  58  67 N13G22    30.09R                  
NEWPORT        PTCLDY    67  58  72 N10       30.11R                  
WALNUT RIDGE   CLOUDY    66  55  68 N14       30.11R                  
BLYTHEVILLE    TSTM      70  66  87 N20G36    30.07R                  
$$

ARZ022-023-033-042-044-261100-
CENTRAL ARKANSAS
  
CITY           SKY/WX    TMP DP  RH WIND       PRES   REMARKS
LITTLE ROCK    CLOUDY    74  66  76 N14G20    30.07S                  
N LITTLE ROCK    N/A     70  65  83 N9G17     30.04R                  
JACKSONVILLE   PTCLDY    72  66  83 N9        30.07R                  
SEARCY         MOCLDY    70  59  68 N16G23    30.10R                  
HOT SPRINGS    CLOUDY    74  68  81 N6        30.07R                  
RUSSELLVILLE   CLOUDY    68  58  70 N16G24    30.11R                  
$$

ARZ036-261100-
EAST ARKANSAS
  
CITY           SKY/WX    TMP DP  RH WIND       PRES   REMARKS
WEST MEMPHIS   CLOUDY    75  70  84 N14G22    30.01R                  
$$

ARZ050-053-066-070-073-261100-
SOUTHWEST ARKANSAS
  
CITY           SKY/WX    TMP DP  RH WIND       PRES   REMARKS
ARKADELPHIA    FAIR      72  70  93 N6        30.04F                  
TEXARKANA      CLOUDY    72  69  90 NE3       30.04S                  
EL DORADO      PTCLDY    72  70  93 N7        30.03R                  
DE QUEEN       MOCLDY    73  67  81 N9        30.04S                  
$$

ARZ056-057-069-261100-
SOUTHEAST ARKANSAS
  
CITY           SKY/WX    TMP DP  RH WIND       PRES   REMARKS
PINE BLUFF     HVY RAIN  74  70  87 N14       30.04R FOG              
STUTTGART      PTCLDY    73  66  78 N14       30.05R                  
MONTICELLO     CLOUDY    74  70  87 W3        30.03R                  

$$


  

Return to Home page


Western Regional Climate Center, wrcc@dri.edu